Time,TemperatureF,DewpointF,PressureIn,WindDirection,WindDirectionDegrees,WindSpeedMPH,WindSpeedGustMPH,Humidity,HourlyPrecipIn,Conditions,Clouds,dailyrainin,SoftwareType,DateUTC
2013-06-26 00:01:00,62.8,62.8,29.74,North,-999,-999.0,-999.0,100,0.00,,,0.00,WSDL version 420,2013-06-26 04:01:00,
2013-06-26 00:02:00,62.8,62.8,29.74,North,-999,-999.0,-999.0,100,0.00,,,0.00,WSDL version 420,2013-06-26 04:02:00,
2013-06-26 00:03:00,62.8,62.8,29.74,North,-999,-999.0,-999.0,100,0.00,,,0.00,WSDL version 420,2013-06-26 04:03:00,
2013-06-26 00:08:00,62.7,62.7,29.74,North,-999,-999.0,-999.0,100,0.00,,,0.00,WSDL version 420,2013-06-26 04:08:00,
2013-06-26 00:11:00,62.6,62.6,29.74,North,-999,-999.0,-999.0,100,0.00,,,0.00,WSDL version 420,2013-06-26 04:11:00,
2013-06-26 00:17:00,62.4,62.4,29.74,North,-999,-999.0,-999.0,100,0.00,,,0.00,WSDL version 420,2013-06-26 04:17:00,
2013-06-26 00:22:00,62.4,62.4,29.74,North,-999,-999.0,-999.0,100,0.00,,,0.00,WSDL version 420,2013-06-26 04:22:00,
2013-06-26 00:28:00,62.4,62.4,29.74,North,-999,-999.0,-999.0,100,0.00,,,0.00,WSDL version 420,2013-06-26 04:28:00,
2013-06-26 00:33:00,62.4,62.4,29.74,North,-999,-999.0,-999.0,100,0.00,,,0.00,WSDL version 420,2013-06-26 04:33:00,
2013-06-26 00:39:00,62.4,62.4,29.74,North,-999,-999.0,-999.0,100,0.00,,,0.00,WSDL version 420,2013-06-26 04:39:00,
2013-06-26 00:44:00,62.4,62.4,29.74,North,-999,-999.0,-999.0,100,0.00,,,0.00,WSDL version 420,2013-06-26 04:44:00,
2013-06-26 00:50:00,62.4,62.4,29.74,North,-999,-999.0,-999.0,100,-99.99,,,-99.99,WSDL version 420,2013-06-26 04:50:00,
2013-06-26 00:55:00,62.3,62.3,29.74,North,-999,-999.0,-999.0,100,0.00,,,0.00,WSDL version 420,2013-06-26 04:55:00,
2013-06-26 01:00:00,62.3,62.3,29.74,North,-999,-999.0,-999.0,100,0.00,,,0.00,WSDL version 420,2013-06-26 05:00:00,
2013-06-26 01:06:00,62.4,62.4,29.74,North,-999,-999.0,-999.0,100,0.00,,,0.00,WSDL version 420,2013-06-26 05:06:00,
2013-06-26 01:11:00,62.4,62.4,29.74,South,185,0.0,0.0,100,0.00,,,0.00,WSDL version 420,2013-06-26 05:11:00,
2013-06-26 01:17:00,62.2,62.2,29.74,South,185,0.0,0.0,100,0.00,,,0.00,WSDL version 420,2013-06-26 05:17:00,
2013-06-26 01:22:00,62.2,62.2,29.74,South,185,0.0,0.0,100,0.00,,,0.00,WSDL version 420,2013-06-26 05:22:00,
2013-06-26 01:27:00,62.2,62.2,29.74,South,185,0.0,0.0,100,0.00,,,0.00,WSDL version 420,2013-06-26 05:27:00,
2013-06-26 01:32:00,62.2,62.2,29.74,North,-999,-999.0,-999.0,100,0.00,,,0.00,WSDL version 420,2013-06-26 05:32:00,
2013-06-26 01:38:00,62.2,62.2,29.74,North,-999,-999.0,-999.0,100,0.00,,,0.00,WSDL version 420,2013-06-26 05:38:00,
2013-06-26 01:43:00,62.2,62.2,29.74,North,-999,-999.0,-999.0,100,0.00,,,0.00,WSDL version 420,2013-06-26 05:43:00,
2013-06-26 01:48:00,62.2,62.2,29.74,North,-999,-999.0,-999.0,100,0.00,,,0.00,WSDL version 420,2013-06-26 05:48:00,
2013-06-26 01:53:00,62.1,62.1,29.74,North,-999,-999.0,-999.0,100,0.00,,,0.00,WSDL version 420,2013-06-26 05:53:00,
2013-06-26 01:59:00,61.9,61.9,29.74,North,-999,-999.0,-999.0,100,0.00,,,0.00,WSDL version 420,2013-06-26 05:59:00,
2013-06-26 02:04:00,61.7,61.7,29.74,North,-999,-999.0,-999.0,100,0.00,,,0.00,WSDL version 420,2013-06-26 06:04:00,
2013-06-26 02:09:00,61.7,61.7,29.74,North,-999,-999.0,-999.0,100,0.00,,,0.00,WSDL version 420,2013-06-26 06:09:00,
2013-06-26 02:15:00,61.7,61.7,29.74,North,-999,-999.0,-999.0,100,0.00,,,0.00,WSDL version 420,2013-06-26 06:15:00,
2013-06-26 02:20:00,61.9,61.9,29.74,North,-999,-999.0,-999.0,100,-99.99,,,-99.99,WSDL version 420,2013-06-26 06:20:00,
2013-06-26 02:25:00,61.9,61.9,29.74,North,-999,-999.0,-999.0,100,0.00,,,0.00,WSDL version 420,2013-06-26 06:25:00,
2013-06-26 02:31:00,61.9,61.9,29.74,North,-999,-999.0,-999.0,100,0.00,,,0.00,WSDL version 420,2013-06-26 06:31:00,
2013-06-26 02:36:00,61.8,61.8,29.74,North,-999,-999.0,-999.0,100,0.00,,,0.00,WSDL version 420,2013-06-26 06:36:00,
2013-06-26 02:41:00,61.7,61.7,29.74,North,-999,-999.0,-999.0,100,0.00,,,0.00,WSDL version 420,2013-06-26 06:41:00,
2013-06-26 02:46:00,61.5,61.5,29.74,North,-999,-999.0,-999.0,100,0.00,,,0.00,WSDL version 420,2013-06-26 06:46:00,
2013-06-26 02:52:00,61.5,61.5,29.74,North,-999,-999.0,-999.0,100,0.00,,,0.00,WSDL version 420,2013-06-26 06:52:00,
2013-06-26 03:00:00,61.5,61.5,29.74,North,-999,-999.0,-999.0,100,0.00,,,0.00,WSDL version 420,2013-06-26 07:00:00,
2013-06-26 03:06:00,61.5,61.5,29.74,North,-999,-999.0,-999.0,100,0.00,,,0.00,WSDL version 420,2013-06-26 07:06:00,
2013-06-26 03:11:00,61.5,61.5,29.74,North,-999,-999.0,-999.0,100,0.00,,,0.00,WSDL version 420,2013-06-26 07:11:00,
2013-06-26 03:17:00,61.5,61.5,29.74,North,-999,-999.0,-999.0,100,0.00,,,0.00,WSDL version 420,2013-06-26 07:17:00,
2013-06-26 03:22:00,61.5,61.5,29.74,North,-999,-999.0,-999.0,100,0.00,,,0.00,WSDL version 420,2013-06-26 07:22:00,
2013-06-26 03:27:00,61.5,61.5,29.74,North,-999,-999.0,-999.0,100,0.00,,,0.00,WSDL version 420,2013-06-26 07:27:00,
2013-06-26 03:32:00,61.5,61.5,29.74,North,-999,-999.0,-999.0,100,0.00,,,0.00,WSDL version 420,2013-06-26 07:32:00,
2013-06-26 03:38:00,61.5,61.5,29.74,North,-999,-999.0,-999.0,100,0.00,,,0.00,WSDL version 420,2013-06-26 07:38:00,
2013-06-26 03:42:00,61.5,61.5,29.74,North,-999,-999.0,-999.0,100,0.00,,,0.00,WSDL version 420,2013-06-26 07:42:00,
2013-06-26 03:47:00,61.5,61.5,29.74,North,-999,-999.0,-999.0,100,0.00,,,0.00,WSDL version 420,2013-06-26 07:47:00,
2013-06-26 03:52:00,61.5,61.5,29.74,North,-999,-999.0,-999.0,100,0.00,,,0.00,WSDL version 420,2013-06-26 07:52:00,
2013-06-26 03:58:00,61.5,61.5,29.74,North,-999,-999.0,-999.0,100,-99.99,,,-99.99,WSDL version 420,2013-06-26 07:58:00,
2013-06-26 04:03:00,61.7,61.7,29.74,North,-999,-999.0,-999.0,100,-99.99,,,-99.99,WSDL version 420,2013-06-26 08:03:00,
2013-06-26 04:09:00,61.8,61.8,29.74,North,-999,-999.0,-999.0,100,0.00,,,0.00,WSDL version 420,2013-06-26 08:09:00,
2013-06-26 04:14:00,61.9,61.9,29.74,North,-999,-999.0,-999.0,100,0.00,,,0.00,WSDL version 420,2013-06-26 08:14:00,
2013-06-26 04:19:00,61.9,61.9,29.74,North,-999,-999.0,-999.0,100,0.00,,,0.00,WSDL version 420,2013-06-26 08:19:00,
2013-06-26 04:24:00,61.9,61.9,29.74,North,-999,-999.0,-999.0,100,0.00,,,0.00,WSDL version 420,2013-06-26 08:24:00,
2013-06-26 04:30:00,61.9,61.9,29.74,North,-999,-999.0,-999.0,100,0.00,,,0.00,WSDL version 420,2013-06-26 08:30:00,
2013-06-26 04:35:00,61.9,61.9,29.74,North,-999,-999.0,-999.0,100,0.00,,,0.00,WSDL version 420,2013-06-26 08:35:00,
2013-06-26 04:41:00,61.9,61.9,29.74,North,-999,-999.0,-999.0,100,0.00,,,0.00,WSDL version 420,2013-06-26 08:41:00,
2013-06-26 04:47:00,61.9,61.9,29.74,North,-999,-999.0,-999.0,100,0.00,,,0.00,WSDL version 420,2013-06-26 08:47:00,
2013-06-26 04:52:00,62.1,62.1,29.74,North,-999,-999.0,-999.0,100,0.00,,,0.00,WSDL version 420,2013-06-26 08:52:00,
2013-06-26 04:57:00,62.1,62.1,29.74,North,-999,-999.0,-999.0,100,0.00,,,0.00,WSDL version 420,2013-06-26 08:57:00,
2013-06-26 05:03:00,62.1,62.1,29.74,North,-999,-999.0,-999.0,100,0.00,,,0.00,WSDL version 420,2013-06-26 09:03:00,
2013-06-26 05:08:00,62.1,62.1,29.74,North,-999,-999.0,-999.0,100,0.00,,,0.00,WSDL version 420,2013-06-26 09:08:00,
2013-06-26 05:14:00,62.1,62.1,29.74,North,-999,-999.0,-999.0,100,0.00,,,0.00,WSDL version 420,2013-06-26 09:14:00,
2013-06-26 05:19:00,62.1,62.1,29.74,North,-999,-999.0,-999.0,100,0.00,,,0.00,WSDL version 420,2013-06-26 09:19:00,
2013-06-26 05:24:00,62.0,62.0,29.74,North,-999,-999.0,-999.0,100,-99.99,,,-99.99,WSDL version 420,2013-06-26 09:24:00,
2013-06-26 05:29:00,61.9,61.9,29.74,North,-999,-999.0,-999.0,100,0.00,,,0.00,WSDL version 420,2013-06-26 09:29:00,
2013-06-26 05:35:00,61.9,61.9,29.74,North,-999,-999.0,-999.0,100,0.00,,,0.00,WSDL version 420,2013-06-26 09:35:00,
2013-06-26 05:40:00,61.9,61.9,29.74,North,-999,-999.0,-999.0,100,0.00,,,0.00,WSDL version 420,2013-06-26 09:40:00,
2013-06-26 05:45:00,62.0,62.0,29.74,North,-999,-999.0,-999.0,100,0.00,,,0.00,WSDL version 420,2013-06-26 09:45:00,
2013-06-26 05:50:00,62.1,62.1,29.74,North,-999,-999.0,-999.0,100,0.05,,,0.05,WSDL version 420,2013-06-26 09:50:00,
2013-06-26 05:55:00,62.1,62.1,29.74,North,-999,-999.0,-999.0,100,0.05,,,0.05,WSDL version 420,2013-06-26 09:55:00,
2013-06-26 06:01:00,62.2,62.1,29.74,North,-999,-999.0,-999.0,100,0.05,,,0.05,WSDL version 420,2013-06-26 10:01:00,
2013-06-26 06:06:00,62.2,62.2,29.74,North,-999,-999.0,-999.0,100,0.05,,,0.05,WSDL version 420,2013-06-26 10:06:00,
2013-06-26 06:12:00,62.4,62.4,29.74,SSE,162,0.0,0.0,100,-99.99,,,-99.99,WSDL version 420,2013-06-26 10:12:00,
2013-06-26 06:17:00,62.5,62.5,29.74,SSE,162,0.0,0.0,100,0.05,,,0.05,WSDL version 420,2013-06-26 10:17:00,
2013-06-26 06:22:00,62.6,62.6,29.74,SSE,162,0.0,0.0,100,0.05,,,0.05,WSDL version 420,2013-06-26 10:22:00,
2013-06-26 06:27:00,62.7,62.7,29.74,NE,50,0.0,0.0,100,-99.99,,,-99.99,WSDL version 420,2013-06-26 10:27:00,
2013-06-26 06:32:00,62.7,62.7,29.74,NE,50,0.0,0.0,100,0.05,,,0.05,WSDL version 420,2013-06-26 10:32:00,
2013-06-26 06:37:00,62.7,62.7,29.74,NE,50,0.0,0.0,100,0.05,,,0.05,WSDL version 420,2013-06-26 10:37:00,
2013-06-26 06:42:00,62.8,62.8,29.74,North,-999,-999.0,-999.0,100,0.05,,,0.05,WSDL version 420,2013-06-26 10:42:00,
2013-06-26 06:48:00,63.0,63.0,29.74,North,-999,-999.0,-999.0,100,0.00,,,0.05,WSDL version 420,2013-06-26 10:48:00,
2013-06-26 06:53:00,63.2,63.2,29.74,North,-999,-999.0,-999.0,100,0.00,,,0.05,WSDL version 420,2013-06-26 10:53:00,
2013-06-26 06:59:00,63.5,63.5,29.74,North,-999,-999.0,-999.0,100,0.00,,,0.05,WSDL version 420,2013-06-26 10:59:00,
2013-06-26 07:04:00,63.5,63.5,29.71,North,-999,-999.0,-999.0,100,0.00,,,0.05,WSDL version 420,2013-06-26 11:04:00,
2013-06-26 07:09:00,63.5,63.5,29.71,North,-999,-999.0,-999.0,100,0.00,,,0.05,WSDL version 420,2013-06-26 11:09:00,
2013-06-26 07:14:00,63.5,63.5,29.71,North,-999,-999.0,-999.0,100,0.00,,,0.05,WSDL version 420,2013-06-26 11:14:00,
2013-06-26 07:20:00,63.7,63.7,29.71,North,-999,-999.0,-999.0,100,0.00,,,0.05,WSDL version 420,2013-06-26 11:20:00,
2013-06-26 07:25:00,63.8,63.8,29.71,North,-999,-999.0,-999.0,100,0.00,,,0.05,WSDL version 420,2013-06-26 11:25:00,
2013-06-26 07:30:00,63.9,63.9,29.71,North,-999,-999.0,-999.0,100,0.00,,,0.05,WSDL version 420,2013-06-26 11:30:00,
2013-06-26 07:36:00,64.0,64.0,29.74,North,-999,-999.0,-999.0,100,0.00,,,0.05,WSDL version 420,2013-06-26 11:36:00,
2013-06-26 07:41:00,64.2,64.2,29.74,North,-999,-999.0,-999.0,100,0.00,,,0.05,WSDL version 420,2013-06-26 11:41:00,
2013-06-26 07:46:00,64.2,64.2,29.74,North,-999,-999.0,-999.0,100,0.00,,,0.05,WSDL version 420,2013-06-26 11:46:00,
2013-06-26 07:52:00,64.3,64.3,29.74,NNE,27,0.0,0.9,100,0.00,,,0.05,WSDL version 420,2013-06-26 11:52:00,
2013-06-26 07:57:00,64.4,64.4,29.74,NNE,27,0.0,1.6,100,0.00,,,0.05,WSDL version 420,2013-06-26 11:57:00,
2013-06-26 08:02:00,64.7,64.7,29.74,NNE,27,1.2,2.0,100,0.00,,,0.05,WSDL version 420,2013-06-26 12:02:00,
2013-06-26 08:07:00,64.8,64.8,29.74,NNE,27,1.4,2.0,100,0.00,,,0.05,WSDL version 420,2013-06-26 12:07:00,
2013-06-26 08:12:00,64.8,64.8,29.74,NNE,27,0.0,2.0,100,0.00,,,0.05,WSDL version 420,2013-06-26 12:12:00,
2013-06-26 08:18:00,64.8,64.8,29.74,NNE,27,0.0,0.0,100,0.00,,,0.05,WSDL version 420,2013-06-26 12:18:00,
2013-06-26 08:23:00,64.8,64.8,29.74,North,-999,-999.0,-999.0,100,0.00,,,0.05,WSDL version 420,2013-06-26 12:23:00,
2013-06-26 08:29:00,64.9,64.9,29.74,NNE,27,0.0,1.1,100,0.00,,,0.05,WSDL version 420,2013-06-26 12:29:00,
2013-06-26 08:34:00,64.9,64.9,29.77,NNE,27,0.0,0.0,100,0.00,,,0.05,WSDL version 420,2013-06-26 12:34:00,
2013-06-26 08:40:00,65.1,65.1,29.77,NNE,27,0.0,0.0,100,0.00,,,0.05,WSDL version 420,2013-06-26 12:40:00,
2013-06-26 08:45:00,65.1,65.1,29.77,NNE,27,0.0,0.0,100,0.00,,,0.05,WSDL version 420,2013-06-26 12:45:00,
2013-06-26 08:50:00,65.2,65.2,29.77,NNE,27,0.0,0.0,100,0.00,,,0.05,WSDL version 420,2013-06-26 12:50:00,
2013-06-26 08:55:00,65.4,65.4,29.77,NNE,27,0.0,0.0,100,0.00,,,0.05,WSDL version 420,2013-06-26 12:55:00,
2013-06-26 09:00:00,65.5,65.5,29.77,NNE,27,0.0,0.0,100,0.00,,,0.05,WSDL version 420,2013-06-26 13:00:00,
2013-06-26 09:06:00,65.6,65.6,29.77,NNE,27,0.0,0.0,100,0.00,,,0.05,WSDL version 420,2013-06-26 13:06:00,
2013-06-26 09:11:00,65.7,65.7,29.77,NNE,27,0.0,1.1,100,0.00,,,0.05,WSDL version 420,2013-06-26 13:11:00,
2013-06-26 09:18:00,65.8,65.8,29.77,NNE,27,2.0,2.0,100,0.00,,,0.05,WSDL version 420,2013-06-26 13:18:00,
2013-06-26 09:23:00,65.8,65.8,29.74,NNE,27,0.9,2.0,100,0.00,,,0.05,WSDL version 420,2013-06-26 13:23:00,
2013-06-26 09:28:00,65.8,65.8,29.74,NNE,27,0.9,2.0,100,0.00,,,0.05,WSDL version 420,2013-06-26 13:28:00,
2013-06-26 09:34:00,65.8,65.8,29.74,NNE,27,0.0,1.3,100,0.00,,,0.05,WSDL version 420,2013-06-26 13:34:00,
2013-06-26 09:39:00,66.1,66.1,29.74,NNE,27,0.0,0.0,100,0.00,,,0.05,WSDL version 420,2013-06-26 13:39:00,
2013-06-26 09:44:00,66.2,66.2,29.74,NNE,27,0.0,0.0,100,0.00,,,0.05,WSDL version 420,2013-06-26 13:44:00,
2013-06-26 09:50:00,66.3,66.3,29.77,NE,50,2.3,3.4,100,0.00,,,0.05,WSDL version 420,2013-06-26 13:50:00,
2013-06-26 09:55:00,66.4,66.4,29.77,ENE,68,2.1,4.3,100,0.00,,,0.05,WSDL version 420,2013-06-26 13:55:00,
2013-06-26 10:00:00,66.4,66.4,29.77,ENE,72,0.7,4.3,100,0.00,,,0.05,WSDL version 420,2013-06-26 14:00:00,
2013-06-26 10:05:00,66.4,66.4,29.77,NNE,27,0.9,2.9,100,0.00,,,0.05,WSDL version 420,2013-06-26 14:05:00,
2013-06-26 10:11:00,66.4,66.4,29.77,ENE,72,2.7,2.9,100,0.00,,,0.05,WSDL version 420,2013-06-26 14:11:00,
2013-06-26 10:16:00,66.4,66.4,29.77,ENE,72,2.7,2.9,100,0.00,,,0.05,WSDL version 420,2013-06-26 14:16:00,
2013-06-26 10:22:00,66.6,66.6,29.77,ENE,72,2.7,2.7,100,0.00,,,0.05,WSDL version 420,2013-06-26 14:22:00,
2013-06-26 10:27:00,66.6,66.6,29.77,ENE,72,2.2,2.7,100,0.00,,,0.05,WSDL version 420,2013-06-26 14:27:00,
2013-06-26 10:33:00,66.6,66.6,29.74,ENE,72,2.1,3.8,100,0.00,,,0.05,WSDL version 420,2013-06-26 14:33:00,
2013-06-26 10:38:00,66.7,66.7,29.74,ENE,57,1.5,3.8,100,0.00,,,0.05,WSDL version 420,2013-06-26 14:38:00,
2013-06-26 10:43:00,66.7,66.7,29.74,ENE,72,3.6,4.0,100,0.00,,,0.05,WSDL version 420,2013-06-26 14:43:00,
2013-06-26 10:48:00,66.8,66.8,29.77,ENE,72,3.6,4.0,100,0.00,,,0.05,WSDL version 420,2013-06-26 14:48:00,
2013-06-26 10:53:00,66.9,66.9,29.77,ENE,72,3.6,3.6,100,0.00,,,0.05,WSDL version 420,2013-06-26 14:53:00,
2013-06-26 10:59:00,67.0,67.0,29.77,North,-999,-999.0,-999.0,100,0.00,,,0.05,WSDL version 420,2013-06-26 14:59:00,
2013-06-26 11:05:00,67.1,67.1,29.74,North,-999,-999.0,-999.0,100,0.00,,,0.05,WSDL version 420,2013-06-26 15:05:00,
2013-06-26 11:11:00,67.1,67.1,29.74,North,-999,-999.0,-999.0,100,0.00,,,0.05,WSDL version 420,2013-06-26 15:11:00,
2013-06-26 11:16:00,67.1,67.1,29.74,North,-999,-999.0,-999.0,100,0.00,,,0.05,WSDL version 420,2013-06-26 15:16:00,
2013-06-26 11:22:00,67.1,67.1,29.77,North,-999,-999.0,-999.0,100,0.00,,,0.05,WSDL version 420,2013-06-26 15:22:00,
2013-06-26 11:27:00,67.1,67.1,29.77,North,-999,-999.0,-999.0,100,0.00,,,0.05,WSDL version 420,2013-06-26 15:27:00,
2013-06-26 11:32:00,67.0,67.0,29.77,North,-999,-999.0,-999.0,100,0.00,,,0.05,WSDL version 420,2013-06-26 15:32:00,
2013-06-26 11:38:00,67.1,67.1,29.77,South,185,0.9,0.0,100,0.00,,,0.05,WSDL version 420,2013-06-26 15:38:00,
2013-06-26 11:43:00,67.1,67.1,29.77,SSW,207,1.3,1.6,100,0.00,,,0.05,WSDL version 420,2013-06-26 15:43:00,
2013-06-26 11:49:00,67.1,67.1,29.77,SSW,207,1.3,1.6,100,0.00,,,0.05,WSDL version 420,2013-06-26 15:49:00,
2013-06-26 11:54:00,66.9,66.9,29.77,SSW,207,1.3,1.6,100,0.00,,,0.05,WSDL version 420,2013-06-26 15:54:00,
2013-06-26 11:59:00,66.9,66.9,29.77,North,-999,-999.0,-999.0,100,0.00,,,0.05,WSDL version 420,2013-06-26 15:59:00,
2013-06-26 12:04:00,67.0,67.0,29.77,North,-999,-999.0,-999.0,100,0.00,,,0.05,WSDL version 420,2013-06-26 16:04:00,
2013-06-26 12:09:00,67.1,67.1,29.77,North,-999,-999.0,-999.0,100,0.00,,,0.05,WSDL version 420,2013-06-26 16:09:00,
2013-06-26 12:15:00,67.3,67.3,29.77,North,-999,-999.0,-999.0,100,0.00,,,0.05,WSDL version 420,2013-06-26 16:15:00,
2013-06-26 12:20:00,67.3,67.3,29.77,North,-999,-999.0,-999.0,100,-99.99,,,-99.99,WSDL version 420,2013-06-26 16:20:00,
2013-06-26 12:25:00,67.3,67.3,29.77,SE,127,1.9,2.9,100,-99.99,,,-99.99,WSDL version 420,2013-06-26 16:25:00,
2013-06-26 12:31:00,67.3,67.3,29.77,West,263,0.8,2.9,100,0.00,,,0.05,WSDL version 420,2013-06-26 16:31:00,
2013-06-26 12:36:00,67.4,67.4,29.77,WNW,297,1.0,3.1,100,0.00,,,0.05,WSDL version 420,2013-06-26 16:36:00,
2013-06-26 12:42:00,67.5,67.5,29.77,East,92,1.8,3.6,100,0.00,,,0.05,WSDL version 420,2013-06-26 16:42:00,
2013-06-26 12:47:00,67.6,67.6,29.77,ESE,113,1.5,3.8,100,0.00,,,0.05,WSDL version 420,2013-06-26 16:47:00,
2013-06-26 12:52:00,67.6,67.6,29.77,NE,42,0.5,3.8,100,0.00,,,0.05,WSDL version 420,2013-06-26 16:52:00,
2013-06-26 12:57:00,67.6,67.6,29.77,East,95,2.2,3.1,100,-99.99,,,-99.99,WSDL version 420,2013-06-26 16:57:00,
2013-06-26 13:02:00,67.6,67.6,29.77,NE,50,3.1,5.8,100,0.00,,,0.05,WSDL version 420,2013-06-26 17:02:00,
2013-06-26 13:07:00,67.6,67.6,29.77,East,79,3.8,6.0,100,0.00,,,0.05,WSDL version 420,2013-06-26 17:07:00,
2013-06-26 13:12:00,67.8,67.8,29.77,South,176,3.1,6.0,100,-99.99,,,-99.99,WSDL version 420,2013-06-26 17:12:00,
2013-06-26 13:18:00,67.8,67.8,29.74,East,89,3.7,4.3,100,0.00,,,0.05,WSDL version 420,2013-06-26 17:18:00,
2013-06-26 13:23:00,68.0,68.0,29.74,SW,230,2.1,4.3,100,0.00,,,0.05,WSDL version 420,2013-06-26 17:23:00,
2013-06-26 13:28:00,68.0,68.0,29.74,SSE,156,2.0,3.4,100,0.00,,,0.05,WSDL version 420,2013-06-26 17:28:00,
2013-06-26 13:34:00,68.0,68.0,29.77,WNW,291,2.1,3.8,100,0.00,,,0.05,WSDL version 420,2013-06-26 17:34:00,
2013-06-26 13:40:00,67.8,67.8,29.77,NNE,31,1.0,3.8,100,0.00,,,0.05,WSDL version 420,2013-06-26 17:40:00,
2013-06-26 13:45:00,67.8,67.8,29.77,WNW,290,1.9,3.4,100,0.00,,,0.05,WSDL version 420,2013-06-26 17:45:00,
2013-06-26 14:01:00,68.2,68.2,-100.00,East,95,2.5,0.0,100,0.00,,,0.05,WSDL version 420,2013-06-26 18:01:00,
2013-06-26 14:06:00,68.2,68.2,29.77,East,88,1.3,3.4,100,-99.99,,,-99.99,WSDL version 420,2013-06-26 18:06:00,
2013-06-26 14:11:00,68.2,68.2,29.77,ESE,117,0.0,3.4,100,0.00,,,0.05,WSDL version 420,2013-06-26 18:11:00,
2013-06-26 14:16:00,68.4,68.4,29.77,ENE,72,0.7,2.2,100,0.00,,,0.05,WSDL version 420,2013-06-26 18:16:00,
2013-06-26 14:21:00,68.4,68.4,29.77,ESE,121,1.6,2.9,100,0.00,,,0.05,WSDL version 420,2013-06-26 18:21:00,
2013-06-26 14:26:00,68.4,68.4,29.77,ENE,72,3.0,5.4,100,0.00,,,0.05,WSDL version 420,2013-06-26 18:26:00,
2013-06-26 14:31:00,68.2,68.2,29.77,East,88,2.9,6.0,100,0.00,,,0.05,WSDL version 420,2013-06-26 18:31:00,
2013-06-26 14:37:00,68.1,68.1,29.77,ENE,69,0.0,4.3,100,0.00,,,0.05,WSDL version 420,2013-06-26 18:37:00,
2013-06-26 14:42:00,68.0,68.0,29.77,ENE,72,1.1,5.8,100,0.00,,,0.05,WSDL version 420,2013-06-26 18:42:00,
2013-06-26 14:47:00,67.9,67.9,29.77,North,5,1.3,5.8,100,0.00,,,0.05,WSDL version 420,2013-06-26 18:47:00,
2013-06-26 14:52:00,67.7,67.7,29.77,ENE,78,2.5,4.9,100,-99.99,,,-99.99,WSDL version 420,2013-06-26 18:52:00,
2013-06-26 14:57:00,67.6,67.6,29.77,ENE,78,1.2,3.8,100,0.00,,,0.05,WSDL version 420,2013-06-26 18:57:00,
2013-06-26 15:02:00,67.5,67.5,29.77,West,280,1.9,3.6,100,0.00,,,0.05,WSDL version 420,2013-06-26 19:02:00,
2013-06-26 15:07:00,67.4,67.4,29.77,South,187,1.7,4.0,100,0.04,,,0.09,WSDL version 420,2013-06-26 19:07:00,
2013-06-26 15:13:00,67.3,67.3,29.77,SSW,211,1.8,5.6,100,0.04,,,0.09,WSDL version 420,2013-06-26 19:13:00,
2013-06-26 15:18:00,67.3,67.3,29.77,SSE,158,2.1,5.6,100,0.04,,,0.09,WSDL version 420,2013-06-26 19:18:00,
2013-06-26 15:23:00,67.3,67.3,29.77,ESE,111,3.4,7.2,100,0.04,,,0.09,WSDL version 420,2013-06-26 19:23:00,
2013-06-26 15:28:00,67.2,67.2,29.77,SE,133,0.9,7.2,100,-99.99,,,-99.99,WSDL version 420,2013-06-26 19:28:00,
2013-06-26 15:34:00,67.2,67.2,29.74,NE,50,2.1,5.4,100,0.04,,,0.09,WSDL version 420,2013-06-26 19:34:00,
2013-06-26 15:41:00,67.2,67.2,29.74,SW,230,1.2,4.9,100,0.04,,,0.09,WSDL version 420,2013-06-26 19:41:00,
2013-06-26 15:46:00,67.3,67.3,29.74,NE,42,3.0,4.7,100,0.04,,,0.09,WSDL version 420,2013-06-26 19:46:00,
2013-06-26 15:51:00,67.3,67.3,29.74,NNW,342,2.7,4.3,100,0.04,,,0.09,WSDL version 420,2013-06-26 19:51:00,
2013-06-26 15:57:00,67.1,67.1,29.74,NNW,345,2.1,4.0,100,0.04,,,0.09,WSDL version 420,2013-06-26 19:57:00,
2013-06-26 16:02:00,67.1,67.1,29.74,WNW,291,3.4,4.9,100,-99.99,,,-99.99,WSDL version 420,2013-06-26 20:02:00,
2013-06-26 16:07:00,67.1,67.1,29.77,WNW,297,3.9,6.0,100,0.00,,,0.09,WSDL version 420,2013-06-26 20:07:00,
2013-06-26 16:12:00,67.1,67.1,29.77,NNW,333,1.6,6.0,100,-99.99,,,-99.99,WSDL version 420,2013-06-26 20:12:00,
2013-06-26 16:17:00,67.3,67.3,29.77,ENE,72,2.2,3.8,100,0.00,,,0.09,WSDL version 420,2013-06-26 20:17:00,
2013-06-26 16:22:00,67.6,67.5,29.74,WSW,249,2.3,3.6,100,0.00,,,0.09,WSDL version 420,2013-06-26 20:22:00,
2013-06-26 16:27:00,67.8,67.8,29.74,WNW,297,1.5,3.1,100,0.00,,,0.09,WSDL version 420,2013-06-26 20:27:00,
2013-06-26 16:32:00,68.3,68.3,29.74,WSW,245,2.5,4.0,100,0.00,,,0.09,WSDL version 420,2013-06-26 20:32:00,
2013-06-26 16:37:00,68.6,68.6,29.74,WNW,284,1.6,4.0,100,-99.99,,,-99.99,WSDL version 420,2013-06-26 20:37:00,
2013-06-26 16:42:00,69.1,69.1,29.74,SW,218,1.7,3.4,100,0.00,,,0.09,WSDL version 420,2013-06-26 20:42:00,
2013-06-26 16:47:00,70.1,70.1,29.74,NNE,27,1.2,3.6,100,0.00,,,0.09,WSDL version 420,2013-06-26 20:47:00,
2013-06-26 16:52:00,70.5,70.5,29.74,SE,125,2.0,4.9,100,0.00,,,0.09,WSDL version 420,2013-06-26 20:52:00,
2013-06-26 16:57:00,70.8,70.8,29.74,NE,50,2.1,4.9,100,0.00,,,0.09,WSDL version 420,2013-06-26 20:57:00,
2013-06-26 17:02:00,70.8,70.8,29.74,ENE,78,3.0,4.0,100,0.00,,,0.09,WSDL version 420,2013-06-26 21:02:00,
2013-06-26 17:07:00,71.0,71.0,29.74,East,100,2.5,4.0,100,0.00,,,0.09,WSDL version 420,2013-06-26 21:07:00,
2013-06-26 17:12:00,71.0,71.0,29.74,SE,144,0.0,4.0,100,-99.99,,,-99.99,WSDL version 420,2013-06-26 21:12:00,
2013-06-26 17:17:00,71.4,71.4,29.74,East,82,2.7,4.3,100,0.00,,,0.09,WSDL version 420,2013-06-26 21:17:00,
2013-06-26 17:22:00,71.7,71.6,29.74,ENE,78,2.6,4.3,99,0.00,,,0.09,WSDL version 420,2013-06-26 21:22:00,
2013-06-26 17:27:00,71.8,71.5,29.74,ESE,111,2.1,4.0,99,0.00,,,0.09,WSDL version 420,2013-06-26 21:27:00,
2013-06-26 17:32:00,71.9,71.5,29.74,ESE,103,2.7,4.3,99,-99.99,,,-99.99,WSDL version 420,2013-06-26 21:32:00,
2013-06-26 17:37:00,72.0,71.3,29.74,East,95,0.0,4.3,97,0.00,,,0.09,WSDL version 420,2013-06-26 21:37:00,
2013-06-26 17:42:00,72.0,70.9,29.74,South,185,2.0,3.1,94,0.00,,,0.09,WSDL version 420,2013-06-26 21:42:00,
2013-06-26 17:47:00,71.7,69.4,29.74,South,185,0.6,3.1,93,0.00,,,0.09,WSDL version 420,2013-06-26 21:47:00,
2013-06-26 17:52:00,71.0,68.8,29.74,South,185,0.8,2.7,93,0.00,,,0.09,WSDL version 420,2013-06-26 21:52:00,
2013-06-26 17:57:00,70.3,68.2,29.74,SSW,203,1.5,2.7,93,0.00,,,0.09,WSDL version 420,2013-06-26 21:57:00,
2013-06-26 18:02:00,70.0,68.1,29.74,South,187,1.3,3.8,94,0.00,,,0.09,WSDL version 420,2013-06-26 22:02:00,
2013-06-26 18:07:00,70.0,68.2,29.77,ENE,72,2.1,3.8,94,0.00,,,0.09,WSDL version 420,2013-06-26 22:07:00,
2013-06-26 18:12:00,70.2,68.5,29.77,East,98,2.6,5.8,94,0.00,,,0.09,WSDL version 420,2013-06-26 22:12:00,
2013-06-26 18:17:00,70.2,68.5,29.77,SSE,162,0.7,5.8,94,-99.99,,,-99.99,WSDL version 420,2013-06-26 22:17:00,
2013-06-26 18:22:00,70.2,68.3,29.74,SSE,166,2.2,4.3,94,0.00,,,0.09,WSDL version 420,2013-06-26 22:22:00,
2013-06-26 18:29:00,69.9,67.8,29.74,SE,136,2.3,4.9,93,-99.99,,,-99.99,WSDL version 420,2013-06-26 22:29:00,
2013-06-26 18:34:00,69.8,67.8,29.77,SSW,212,2.4,4.9,93,0.00,,,0.09,WSDL version 420,2013-06-26 22:34:00,
2013-06-26 18:39:00,69.7,67.9,29.77,SSE,159,2.4,4.3,94,0.00,,,0.09,WSDL version 420,2013-06-26 22:39:00,
2013-06-26 18:44:00,69.6,68.0,29.77,SSE,162,0.5,3.8,94,0.00,,,0.09,WSDL version 420,2013-06-26 22:44:00,
2013-06-26 18:49:00,69.5,67.8,29.77,NE,38,1.6,3.6,94,0.00,,,0.09,WSDL version 420,2013-06-26 22:49:00,
2013-06-26 18:54:00,69.4,67.7,29.77,East,95,0.6,3.6,94,0.00,,,0.09,WSDL version 420,2013-06-26 22:54:00,
2013-06-26 18:59:00,69.1,67.8,29.77,ESE,117,0.7,3.4,96,0.00,,,0.09,WSDL version 420,2013-06-26 22:59:00,
2013-06-26 19:04:00,68.6,67.3,29.74,SSE,162,0.4,3.1,96,0.00,,,0.09,WSDL version 420,2013-06-26 23:04:00,
2013-06-26 19:11:00,68.7,67.3,29.74,SE,136,1.8,3.1,96,0.00,,,0.09,WSDL version 420,2013-06-26 23:11:00,
2013-06-26 19:16:00,68.5,66.9,29.74,SSE,162,1.0,2.7,94,0.00,,,0.09,WSDL version 420,2013-06-26 23:16:00,
2013-06-26 19:21:00,68.2,66.7,29.77,SSW,212,0.5,2.5,96,0.00,,,0.09,WSDL version 420,2013-06-26 23:21:00,
2013-06-26 19:26:00,68.1,66.7,29.77,SSW,210,0.8,2.2,96,0.00,,,0.09,WSDL version 420,2013-06-26 23:26:00,
2013-06-26 19:31:00,67.8,66.8,29.77,WSW,238,1.5,4.3,97,0.00,,,0.09,WSDL version 420,2013-06-26 23:31:00,
2013-06-26 19:36:00,67.7,66.7,29.77,SSW,203,0.4,4.3,97,0.00,,,0.09,WSDL version 420,2013-06-26 23:36:00,
2013-06-26 19:41:00,67.5,66.6,29.77,WSW,252,2.4,3.6,97,0.00,,,0.09,WSDL version 420,2013-06-26 23:41:00,
2013-06-26 19:46:00,67.4,66.4,29.77,SW,233,2.8,4.9,97,0.00,,,0.09,WSDL version 420,2013-06-26 23:46:00,
2013-06-26 19:52:00,67.5,66.5,29.77,SSE,157,1.2,4.9,97,0.00,,,0.09,WSDL version 420,2013-06-26 23:52:00,
2013-06-26 19:57:00,67.4,66.2,29.77,ENE,62,1.1,3.4,97,0.00,,,0.09,WSDL version 420,2013-06-26 23:57:00,
2013-06-26 20:02:00,67.2,66.2,29.77,South,170,2.4,3.4,97,0.00,,,0.09,WSDL version 420,2013-06-27 00:02:00,
2013-06-26 20:07:00,67.0,66.3,29.74,ESE,117,0.2,3.4,98,0.00,,,0.09,WSDL version 420,2013-06-27 00:07:00,
2013-06-26 20:12:00,66.8,66.2,29.74,ESE,120,1.0,3.4,98,-99.99,,,-99.99,WSDL version 420,2013-06-27 00:12:00,
2013-06-26 20:17:00,66.7,66.3,29.74,WSW,238,2.5,3.4,99,-99.99,,,-99.99,WSDL version 420,2013-06-27 00:17:00,
2013-06-26 20:22:00,66.6,66.2,29.77,SW,215,2.2,3.4,99,0.00,,,0.09,WSDL version 420,2013-06-27 00:22:00,
2013-06-26 20:27:00,66.5,66.1,29.77,SW,230,1.6,3.4,99,0.00,,,0.09,WSDL version 420,2013-06-27 00:27:00,
2013-06-26 20:32:00,66.4,66.4,29.77,SW,217,1.6,2.9,100,0.00,,,0.09,WSDL version 420,2013-06-27 00:32:00,
2013-06-26 20:37:00,66.4,66.4,29.77,NE,46,0.4,3.1,100,0.00,,,0.09,WSDL version 420,2013-06-27 00:37:00,
2013-06-26 20:42:00,66.4,66.4,29.77,WSW,239,0.9,3.6,100,0.00,,,0.09,WSDL version 420,2013-06-27 00:42:00,
2013-06-26 20:47:00,66.4,66.4,29.77,NW,316,1.0,3.6,100,0.00,,,0.09,WSDL version 420,2013-06-27 00:47:00,
2013-06-26 20:53:00,66.3,66.3,29.77,ENE,72,0.3,2.5,100,0.00,,,0.09,WSDL version 420,2013-06-27 00:53:00,
2013-06-26 20:58:00,66.1,66.1,29.77,ENE,72,0.0,2.5,100,0.00,,,0.09,WSDL version 420,2013-06-27 00:58:00,
2013-06-26 21:03:00,65.9,65.9,29.77,ESE,117,0.9,2.0,100,0.00,,,0.09,WSDL version 420,2013-06-27 01:03:00,
2013-06-26 21:08:00,65.7,65.7,29.77,South,180,0.6,2.0,100,0.00,,,0.09,WSDL version 420,2013-06-27 01:08:00,
2013-06-26 21:13:00,65.5,65.5,29.77,SW,230,0.0,2.0,100,0.00,,,0.09,WSDL version 420,2013-06-27 01:13:00,
2013-06-26 21:18:00,65.3,65.3,29.77,West,265,1.0,3.1,100,-99.99,,,-99.99,WSDL version 420,2013-06-27 01:18:00,
2013-06-26 21:23:00,65.5,65.5,29.77,SSW,194,0.5,3.1,100,0.00,,,0.09,WSDL version 420,2013-06-27 01:23:00,
2013-06-26 21:28:00,65.4,65.4,29.77,SE,142,1.0,2.9,100,0.00,,,0.09,WSDL version 420,2013-06-27 01:28:00,
2013-06-26 21:33:00,65.3,65.3,29.77,East,95,0.0,2.7,100,0.00,,,0.09,WSDL version 420,2013-06-27 01:33:00,
2013-06-26 21:38:00,65.1,65.1,29.80,East,98,0.0,1.1,100,0.00,,,0.09,WSDL version 420,2013-06-27 01:38:00,
2013-06-26 21:43:00,64.9,64.9,29.80,SE,140,1.3,3.1,100,-99.99,,,-99.99,WSDL version 420,2013-06-27 01:43:00,
2013-06-26 21:48:00,64.9,64.9,29.80,SW,235,0.4,3.1,100,0.00,,,0.09,WSDL version 420,2013-06-27 01:48:00,
2013-06-26 21:53:00,65.1,65.1,29.80,South,181,0.5,2.5,100,0.00,,,0.09,WSDL version 420,2013-06-27 01:53:00,
2013-06-26 21:58:00,65.1,65.1,29.80,SSW,207,0.7,2.5,100,0.00,,,0.09,WSDL version 420,2013-06-27 01:58:00,
2013-06-26 22:03:00,65.2,65.2,29.80,SW,230,2.3,3.8,100,-99.99,,,-99.99,WSDL version 420,2013-06-27 02:03:00,
2013-06-26 22:08:00,65.5,65.5,29.80,SW,230,2.5,4.0,100,0.00,,,0.09,WSDL version 420,2013-06-27 02:08:00,
2013-06-26 22:13:00,65.7,65.7,29.80,WSW,239,3.4,4.9,100,0.00,,,0.09,WSDL version 420,2013-06-27 02:13:00,
2013-06-26 22:18:00,65.7,65.7,29.80,WSW,246,3.0,4.9,100,0.00,,,0.09,WSDL version 420,2013-06-27 02:18:00,
2013-06-26 22:23:00,65.8,65.8,29.80,SW,236,2.9,5.4,100,0.00,,,0.09,WSDL version 420,2013-06-27 02:23:00,
2013-06-26 22:28:00,65.8,65.8,29.80,SW,230,2.6,5.6,100,0.00,,,0.09,WSDL version 420,2013-06-27 02:28:00,
2013-06-26 22:33:00,65.9,65.9,29.80,SW,230,0.8,5.6,100,0.00,,,0.09,WSDL version 420,2013-06-27 02:33:00,
2013-06-26 22:39:00,65.9,65.9,29.80,SSW,201,0.0,2.9,100,0.00,,,0.09,WSDL version 420,2013-06-27 02:39:00,
2013-06-26 22:44:00,65.7,65.7,29.80,SSW,207,0.0,2.9,100,0.00,,,0.09,WSDL version 420,2013-06-27 02:44:00,
2013-06-26 22:49:00,65.6,65.6,29.77,SE,140,1.3,2.9,100,0.00,,,0.09,WSDL version 420,2013-06-27 02:49:00,
2013-06-26 22:54:00,65.5,65.5,29.77,SE,133,0.0,2.9,100,0.00,,,0.09,WSDL version 420,2013-06-27 02:54:00,
2013-06-26 22:59:00,65.5,65.5,29.77,ESE,117,0.0,1.1,100,0.00,,,0.09,WSDL version 420,2013-06-27 02:59:00,
2013-06-26 23:04:00,65.5,65.5,29.80,ESE,117,0.0,1.1,100,0.00,,,0.09,WSDL version 420,2013-06-27 03:04:00,
2013-06-26 23:09:00,65.3,65.3,29.80,ESE,117,0.0,0.0,100,0.00,,,0.09,WSDL version 420,2013-06-27 03:09:00,
2013-06-26 23:14:00,65.3,65.3,29.80,NE,50,2.1,2.7,100,0.00,,,0.09,WSDL version 420,2013-06-27 03:14:00,
2013-06-26 23:19:00,65.1,65.1,29.77,ENE,78,0.0,2.7,100,0.00,,,0.09,WSDL version 420,2013-06-27 03:19:00,
2013-06-26 23:24:00,64.9,64.9,29.77,SW,230,1.2,2.0,100,0.00,,,0.09,WSDL version 420,2013-06-27 03:24:00,
2013-06-26 23:29:00,64.8,64.8,29.77,SW,230,0.1,2.0,100,0.00,,,0.09,WSDL version 420,2013-06-27 03:29:00,
2013-06-26 23:34:00,64.7,64.7,29.77,SW,230,0.0,1.3,100,0.00,,,0.09,WSDL version 420,2013-06-27 03:34:00,
2013-06-26 23:39:00,64.6,64.6,29.77,SW,230,0.0,0.0,100,0.00,,,0.09,WSDL version 420,2013-06-27 03:39:00,
2013-06-26 23:44:00,64.6,64.6,29.77,SW,230,0.0,1.6,100,0.00,,,0.09,WSDL version 420,2013-06-27 03:44:00,
2013-06-26 23:49:00,64.5,64.5,29.77,SW,230,0.0,1.6,100,0.00,,,0.09,WSDL version 420,2013-06-27 03:49:00,
2013-06-26 23:54:00,64.4,64.4,29.77,SSW,207,0.0,1.3,100,0.00,,,0.09,WSDL version 420,2013-06-27 03:54:00,
2013-06-26 23:59:00,64.4,64.4,29.77,SSW,207,0.0,0.0,100,-99.99,,,-99.99,WSDL version 420,2013-06-27 03:59:00,